STARLINK-36984, 68168

Orbit data source: Space-Track

STARLINK-36984, 68168 is a payload satellite owned by SpaceX/Seattle (US) in LEO that was launched on Sat, 14 Mar 2026 UTC via an FALCON 9 launch vehicle from the Air Force Eastern Test Range (AFETR). Payload-class satellites include a variety of spacecraft equipped with specific instruments for various scientific and technological missions. These include communications satellites like Starlink; space stations such as the ISS; scientific satellites like the Hubble; Earth observation satellites from companies like Planet Labs, Umbra, and HawkEye 360; GPS; miniature CubeSats for education and research; and military/defense satellites.

Loading next visibility...
Identifier
68168, 2026-050B
Orbit
LEO
Country
Flag of USUS
Related business
Manufacturer
SpaceX/Seattle
Mission
Operational spacecraft
Bus & Motor
STARLINK V2MO, Unknown motor
Mass
575 kg wet, ~530 kg dry
Launch date (UTC)
2026-03-14 (3 months ago)
Launch vehicle
FALCON 9
Launch site
Air Force Eastern Test Range (AFETR)
Object type
Payload
Rocket body
Debris
Shape & HBR
Unknown shape, 17.7 m
Radar Cross Section
Large (>1 m²)

Expand to show TLE details & history
Last TLE update: 16 hours ago

TLE from 16 hours ago
0 STARLINK-36984
1 68168U 26050B   26171.22421639  .00029069  00000-0  86814-3 0  9994
2 68168  53.1575 148.9434 0001295  77.8147 282.3001 15.34400036 16404
Epoch: 2026-06-20T05:22Z
TLE epoch observation values (Epoch: 2026-06-20T05:22:52.296Z)
Latitude
0.00003°
Longitude
159.78362°
Altitude
463.416 km
Speed
7.636 km/s
True Right ascension
09h 55m 46s
True Declination
0° 00' 00"
Sunlit
Object was in daylight at epoch
Visualization orbit readout
Latitude
Unknown
Longitude
Unknown
Altitude
Unknown
Speed
Unknown
Apparent Right ascension
Unknown
Apparent Declination
Unknown
Sunlit
N/A
Visualization observer readout
Local Sidereal Time
08:42:07
Azimuth
Unknown
Elevation
Unknown
Doppler factor
Unknown
Orbital elements
Apogee altitude
463.846 km
Perigee altitude
462.075 km
Semi-major axis
6,841.097 km
Eccentricity
0.00013
Inclination
53.1575°
RAAN
148.9434°
Arg. of periapsis
77.8147°
True anomaly
282.2856°
Mean anomaly
282.3001°
Eccentric anomaly
282.29285°
Mean motion
3.83579 °/min
Orbital period
93.85 mins
BSTAR
0.00086814
Loading maneuver chart data...
Computing Atmospheric mass density...
Loading historical data...
Loading historical data...
Loading historical data...
Loading historical data...
Loading historical data...
Loading historical data...
Loading historical data...

Documentation

Showing up to 5 results
|